User: anonymous   Login
Location: Seminole
(32.7190°N, 102.6440°W)
Time: 06:10:22
(UTC-05:00)
Language:

Meteor 2-10 - Orbit

View from above orbital plane
View from above orbital plane
View from above satellite
View from above satellite

Ground track
Ground track

The orbit data is extracted from the following two-line orbital elements,

1 14452U 83109A   16211.52752124  .00000071  00000-0  23631-4 0  9993
2 14452  81.1606  41.9918 0090036 236.6731 122.5805 14.26404077703028
Epoch (UTC): 29 July 2016 12:39:37
Eccentricity: 0.0090036
inclination: 81.1606°
perigee height: 739 km
apogee height: 868 km
right ascension of ascending node: 41.9918°
argument of perigee: 236.6731°
revolutions per day: 14.26404077
mean anomaly at epoch: 122.5805°
orbit number at epoch: 70302

The dashed part of the orbit path shows where the satellite is in the earth's shadow,  

DLR